GW3419 Weather Reports


Display with metric or nautical units.
time (UTC)temp
F
wind
direction
speed
MPH
gust
MPH
rain 1hr
in
rain 24hr
in
rain mn
in
humidity
%
barometer
mb
20260905024513 79 359 2.0 4.0 0.00 0.00 0.00 94 1009.7
20260905024009 79 20 1.0 4.0 0.00 0.00 0.00 94 1009.6
20260905023509 79 4 2.0 5.0 0.00 0.00 0.00 94 1009.7
20260905023003 79 10 2.0 5.0 0.00 0.00 0.00 94 1009.8
20260905022458 79 23 2.0 5.0 0.00 0.00 0.00 94 1009.5
20260905021953 80 24 2.0 6.0 0.00 0.00 0.00 94 1009.5
20260905021452 80 50 4.0 5.0 0.00 0.00 0.00 94 1009.2
20260905020948 80 20 3.0 5.0 0.00 0.00 0.00 93 1009.3
20260905020447 80 37 3.0 6.0 0.00 0.00 0.00 93 1009.3
20260905015942 80 29 2.0 6.0 0.00 0.00 0.00 93 1009.1
20260905015440 80 23 4.0 7.0 0.00 0.00 0.00 93 1009.1
20260905014939 81 9 3.0 9.0 0.00 0.00 0.00 93 1009.1
20260905014435 81 44 2.0 7.0 0.00 0.00 0.00 93 1009.1
20260905013930 81 15 3.0 5.0 0.00 0.00 0.00 93 1009.2
20260905013427 82 47 0.0 3.0 0.00 0.00 0.00 93 1009.3
20260905012921 82 40 3.0 5.0 0.00 0.00 0.00 92 1009.0
20260905012417 82 28 3.0 5.0 0.00 0.00 0.00 92 1008.8
20260905011913 82 26 2.0 6.0 0.00 0.00 0.00 92 1008.8
20260905011408 82 15 1.0 6.0 0.00 0.00 0.00 92 1008.7
20260905010903 82 30 3.0 6.0 0.00 0.00 0.00 92 1008.7
20260905010358 82 15 1.0 6.0 0.00 0.00 0.00 92 1008.6
20260905005855 83 19 1.0 4.0 0.00 0.00 0.00 91 1008.5
20260905005350 84 0 4.0 4.0 0.00 0.00 0.00 89 1008.1
20260905004845 84 30 1.0 3.0 0.00 0.00 0.00 87 1008.1
20260905004340 84 28 1.0 2.0 0.00 0.00 0.00 86 1007.9
20260905003836 84 50 0.0 2.0 0.00 0.00 0.00 86 1007.9
20260905003331 85 186 0.0 1.0 0.00 0.00 0.00 85 1008.0
20260905002826 86 150 0.0 5.0 0.00 0.00 0.00 84 1007.8
20260905002321 86 224 0.0 3.0 0.00 0.00 0.00 82 1007.7
20260905001816 86 191 4.0 5.0 0.00 0.00 0.00 82 1007.6
20260905001315 86 232 3.0 6.0 0.00 0.00 0.00 81 1007.7
20260905000811 86 223 2.0 4.0 0.00 0.00 0.00 81 1007.5
20260905000306 87 202 2.0 3.0 0.00 0.00 0.00 80 1007.6
20260904235801 87 228 2.0 3.0 0.00 0.00 0.00 79 1007.6
20260904235256 87 212 2.0 4.0 0.00 0.00 0.00 79 1007.7
20260904234751 88 199 2.0 4.0 0.00 0.00 0.00 77 1008.0
20260904234246 88 190 2.0 6.0 0.00 0.00 0.00 77 1007.8
20260904233742 88 215 4.0 6.0 0.00 0.00 0.00 76 1007.7
20260904233238 88 229 5.0 6.0 0.00 0.00 0.00 76 1007.7
20260904232734 89 200 3.0 7.0 0.00 0.00 0.00 76 1007.8
20260904232230 89 203 3.0 7.0 0.00 0.00 0.00 75 1007.7
20260904231725 89 201 5.0 6.0 0.00 0.00 0.00 74 1007.6
20260904231221 90 235 3.0 7.0 0.00 0.00 0.00 75 1007.6
20260904230721 90 198 4.0 7.0 0.00 0.00 0.00 73 1007.9
20260904230215 90 225 4.0 6.0 0.00 0.00 0.00 73 1007.8
20260904225714 91 201 6.0 6.0 0.00 0.00 0.00 72 1007.5
20260904225209 90 168 2.0 8.0 0.00 0.00 0.00 73 1007.8
20260904224708 91 197 5.0 6.0 0.00 0.00 0.00 71 1007.5
20260904224203 91 200 3.0 7.0 0.00 0.00 0.00 71 1007.7
20260904223702 90 201 6.0 9.0 0.00 0.00 0.00 71 1007.5
20260904223157 91 208 5.0 9.0 0.00 0.00 0.00 71 1007.6
20260904222653 92 227 2.0 5.0 0.00 0.00 0.00 69 1007.3
20260904222148 91 207 3.0 6.0 0.00 0.00 0.00 71 1007.3
20260904221648 92 221 5.0 5.0 0.00 0.00 0.00 69 1007.5
20260904221143 91 207 6.0 11.0 0.00 0.00 0.00 72 1007.2
20260904220638 91 197 3.0 8.0 0.00 0.00 0.00 72 1007.1
20260904220133 91 225 4.0 10.0 0.00 0.00 0.00 71 1007.4
20260904215627 91 228 1.0 8.0 0.00 0.00 0.00 72 1007.4
20260904215124 91 213 5.0 9.0 0.00 0.00 0.00 72 1007.4
20260904214623 91 222 5.0 7.0 0.00 0.00 0.00 72 1007.2
20260904214119 90 207 6.0 9.0 0.00 0.00 0.00 73 1007.2
20260904213617 90 191 8.0 13.0 0.00 0.00 0.00 72 1007.0
20260904213113 91 206 8.0 11.0 0.00 0.00 0.00 70 1007.3
20260904212608 92 207 2.0 8.0 0.00 0.00 0.00 71 1007.3
20260904212103 91 209 7.0 8.0 0.00 0.00 0.00 70 1007.3
20260904211603 91 199 6.0 8.0 0.00 0.00 0.00 72 1007.4
20260904211058 91 198 7.0 9.0 0.00 0.00 0.00 70 1007.2
20260904210557 91 175 3.0 7.0 0.00 0.00 0.00 72 1007.3
20260904210054 91 212 5.0 7.0 0.00 0.00 0.00 71 1007.5
20260904205549 91 187 6.0 6.0 0.00 0.00 0.00 70 1007.5
20260904205045 91 195 6.0 8.0 0.00 0.00 0.00 69 1007.3
20260904204541 90 186 4.0 9.0 0.00 0.00 0.00 71 1007.5
20260904204037 90 207 5.0 7.0 0.00 0.00 0.00 71 1007.3
20260904203532 90 198 5.0 9.0 0.00 0.00 0.00 72 1007.4
20260904203029 90 206 5.0 9.0 0.00 0.00 0.00 71 1007.2
20260904202525 90 185 4.0 10.0 0.00 0.00 0.00 72 1007.1
20260904202021 91 200 4.0 8.0 0.00 0.00 0.00 71 1007.2
20260904201515 91 199 3.0 7.0 0.00 0.00 0.00 71 1007.3
20260904201011 91 206 6.0 10.0 0.00 0.00 0.00 70 1007.4
20260904200509 91 197 5.0 7.0 0.00 0.00 0.00 69 1007.3
20260904200005 91 207 6.0 9.0 0.00 0.00 0.00 69 1007.3
20260904195503 93 174 1.0 5.0 0.00 0.00 0.00 69 1007.2
20260904195002 92 199 3.0 7.0 0.00 0.00 0.00 71 1007.2
20260904194457 92 136 3.0 5.0 0.00 0.00 0.00 70 1007.6
20260904193952 91 232 1.0 8.0 0.00 0.00 0.00 69 1007.5
20260904193447 90 197 3.0 8.0 0.00 0.00 0.00 72 1007.2
20260904192943 90 205 4.0 7.0 0.00 0.00 0.00 74 1007.2
20260904192437 90 197 5.0 9.0 0.00 0.00 0.00 71 1007.4
20260904191934 90 206 6.0 13.0 0.00 0.00 0.00 72 1007.1
20260904191430 91 186 4.0 10.0 0.00 0.00 0.00 72 1007.4
20260904190927 91 240 3.0 6.0 0.00 0.00 0.00 73 1007.3
20260904190427 91 182 5.0 7.0 0.00 0.00 0.00 75 1007.1
20260904185923 91 156 3.0 7.0 0.00 0.00 0.00 72 1007.3
20260904185419 91 197 6.0 9.0 0.00 0.00 0.00 72 1007.1
20260904184913 91 204 4.0 7.0 0.00 0.00 0.00 72 1007.3
20260904184407 90 196 3.0 8.0 0.00 0.00 0.00 74 1007.2
20260904183903 90 229 7.0 9.0 0.00 0.00 0.00 72 1007.4
20260904183358 90 207 2.0 8.0 0.00 0.00 0.00 74 1007.3
20260904182854 90 208 6.0 8.0 0.00 0.00 0.00 72 1007.2
20260904182348 90 200 6.0 8.0 0.00 0.00 0.00 71 1007.4
20260904181843 90 212 6.0 8.0 0.00 0.00 0.00 72 1007.2
20260904181338 89 222 8.0 10.0 0.00 0.00 0.00 73 1007.2
20260904180834 90 194 5.0 9.0 0.00 0.00 0.00 74 1007.4
20260904180329 90 174 4.0 8.0 0.00 0.00 0.00 71 1007.1
20260904175828 90 190 6.0 8.0 0.00 0.00 0.00 72 1007.3
20260904175327 89 208 5.0 7.0 0.00 0.00 0.00 74 1007.3
20260904174827 89 194 2.0 8.0 0.00 0.00 0.00 73 1007.1
20260904174323 89 186 4.0 7.0 0.00 0.00 0.00 75 1007.1
20260904173819 90 208 6.0 8.0 0.00 0.00 0.00 72 1007.0
20260904173314 89 205 4.0 5.0 0.00 0.00 0.00 73 1007.2
20260904172810 89 190 2.0 7.0 0.00 0.00 0.00 74 1007.1
20260904172309 90 206 4.0 7.0 0.00 0.00 0.00 72 1007.2
20260904171804 89 157 1.0 4.0 0.00 0.00 0.00 73 1007.2
20260904171259 89 149 2.0 5.0 0.00 0.00 0.00 74 1007.3
20260904170755 88 172 3.0 4.0 0.00 0.00 0.00 73 1007.4
20260904170252 89 305 3.0 4.0 0.00 0.00 0.00 72 1007.3
20260904165750 87 160 3.0 5.0 0.00 0.00 0.00 73 1007.4
20260904165249 87 207 3.0 6.0 0.00 0.00 0.00 75 1007.0
20260904164744 89 167 3.0 4.0 0.00 0.00 0.00 73 1007.3
20260904164240 88 132 1.0 6.0 0.00 0.00 0.00 74 1007.4
20260904163736 87 152 2.0 4.0 0.00 0.00 0.00 76 1007.5
20260904163231 88 97 2.0 4.0 0.00 0.00 0.00 74 1007.5
20260904162730 87 98 2.0 5.0 0.00 0.00 0.00 74 1007.3
20260904162225 87 104 3.0 4.0 0.00 0.00 0.00 73 1007.2
20260904161720 87 173 3.0 6.0 0.00 0.00 0.00 74 1007.2
20260904161215 88 126 4.0 5.0 0.00 0.00 0.00 73 1007.3
20260904160711 88 87 1.0 3.0 0.00 0.00 0.00 71 1007.1
20260904160206 87 188 2.0 3.0 0.00 0.00 0.00 73 1007.4
20260904155706 87 162 3.0 3.0 0.00 0.00 0.00 74 1007.6
20260904155206 87 152 4.0 4.0 0.00 0.00 0.00 75 1007.4
20260904154704 86 101 1.0 4.0 0.00 0.00 0.00 75 1007.4
20260904154200 88 34 1.0 3.0 0.00 0.00 0.00 72 1007.5
20260904153654 87 221 2.0 4.0 0.00 0.00 0.00 72 1007.0
20260904153150 87 88 1.0 5.0 0.00 0.00 0.00 74 1007.2
20260904152647 87 108 0.0 3.0 0.00 0.00 0.00 74 1007.4
20260904152141 87 176 2.0 4.0 0.00 0.00 0.00 73 1007.5
20260904151636 87 37 2.0 4.0 0.00 0.00 0.00 72 1007.4
20260904151135 87 38 1.0 3.0 0.00 0.00 0.00 73 1007.5
20260904150630 87 224 0.0 2.0 0.00 0.00 0.00 73 1007.5
20260904150126 86 40 0.0 4.0 0.00 0.00 0.00 75 1007.4
20260904145625 86 134 1.0 4.0 0.00 0.00 0.00 75 1007.5
20260904145120 86 3 0.0 3.0 0.00 0.00 0.00 76 1007.5
20260904144616 84 339 5.0 6.0 0.00 0.00 0.00 76 1007.5
20260904144111 85 235 1.0 4.0 0.00 0.00 0.00 75 1007.3
20260904143606 85 174 0.0 2.0 0.00 0.00 0.00 76 1007.3
20260904143102 85 286 0.0 3.0 0.00 0.00 0.00 76 1007.3
20260904142559 85 293 2.0 3.0 0.00 0.00 0.00 77 1007.2
20260904142054 83 135 0.0 4.0 0.00 0.00 0.00 79 1007.0
20260904141549 84 157 2.0 4.0 0.00 0.00 0.00 78 1007.3
20260904141044 84 290 2.0 3.0 0.00 0.00 0.00 77 1007.2
20260904140540 83 207 1.0 3.0 0.00 0.00 0.00 79 1007.1
20260904140034 83 151 0.0 3.0 0.00 0.00 0.00 78 1007.0
20260904135534 84 210 1.0 3.0 0.00 0.00 0.00 78 1006.9
20260904135030 83 187 1.0 3.0 0.00 0.00 0.00 80 1006.9
20260904134525 81 229 3.0 4.0 0.00 0.00 0.00 81 1007.0
20260904134019 81 255 1.0 5.0 0.00 0.00 0.00 83 1007.1
20260904133513 80 206 3.0 4.0 0.00 0.00 0.00 83 1006.9
20260904133010 80 260 1.0 4.0 0.00 0.00 0.00 85 1006.9
20260904132504 79 150 1.0 5.0 0.00 0.00 0.00 86 1007.1
20260904132004 80 188 2.0 4.0 0.00 0.00 0.00 85 1006.9
20260904131458 80 200 0.0 3.0 0.00 0.00 0.00 85 1006.7
20260904130954 79 244 1.0 2.0 0.00 0.00 0.00 86 1006.9
20260904130453 78 209 0.0 3.0 0.00 0.00 0.00 88 1006.7
20260904125948 77 209 3.0 4.0 0.00 0.00 0.00 88 1006.7
20260904125445 77 211 1.0 3.0 0.00 0.00 0.00 89 1006.8
20260904124944 77 212 1.0 4.0 0.00 0.00 0.00 89 1006.7
20260904124440 76 213 1.0 4.0 0.00 0.00 0.00 90 1006.6
20260904123936 76 275 0.0 5.0 0.00 0.00 0.00 91 1006.3
20260904123430 75 191 0.0 3.0 0.00 0.00 0.00 93 1006.3
20260904122926 74 210 3.0 4.0 0.00 0.00 0.00 94 1006.2
20260904122426 74 212 2.0 3.0 0.00 0.00 0.00 95 1006.4
20260904121920 73 245 0.0 2.0 0.00 0.00 0.00 96 1006.4
20260904121417 73 226 2.0 3.0 0.00 0.00 0.00 96 1006.4
20260904120913 73 216 0.0 3.0 0.00 0.00 0.00 97 1006.6
20260904120409 73 156 0.0 2.0 0.00 0.00 0.00 97 1006.6
20260904115903 73 142 0.0 2.0 0.00 0.00 0.00 97 1006.4
20260904115358 73 89 0.0 2.0 0.00 0.00 0.00 97 1006.4
20260904114853 73 180 0.0 2.0 0.00 0.00 0.00 97 1006.4
20260904114348 73 142 0.0 2.0 0.00 0.00 0.00 97 1006.3
20260904113843 73 130 0.0 2.0 0.00 0.00 0.00 96 1006.3
20260904113342 73 12 0.0 2.0 0.00 0.00 0.00 96 1006.3
20260904112837 74 171 0.0 2.0 0.00 0.00 0.00 96 1006.2
20260904112333 74 230 0.0 3.0 0.00 0.00 0.00 95 1006.1
20260904111828 74 309 0.0 1.0 0.00 0.00 0.00 95 1006.1
20260904111324 74 195 2.0 4.0 0.00 0.00 0.00 95 1006.3
20260904110820 74 215 2.0 3.0 0.00 0.00 0.00 95 1006.1
20260904110319 74 182 2.0 3.0 0.00 0.00 0.00 95 1006.0
20260904105819 74 253 0.0 2.0 0.00 0.00 0.00 95 1006.0
20260904105319 74 237 0.0 2.0 0.00 0.00 0.00 95 1005.9
20260904104814 74 188 0.0 3.0 0.00 0.00 0.00 95 1006.2
20260904104309 74 150 0.0 2.0 0.00 0.00 0.00 95 1006.1
20260904103807 74 25 0.0 2.0 0.00 0.00 0.00 95 1006.0
20260904103306 74 184 0.0 2.0 0.00 0.00 0.00 95 1006.0
20260904102801 75 205 0.0 1.0 0.00 0.00 0.00 94 1005.8
20260904102257 75 43 0.0 2.0 0.00 0.00 0.00 94 1006.0
20260904101753 75 31 0.0 1.0 0.00 0.00 0.00 93 1006.1
20260904101249 75 315 0.0 2.0 0.00 0.00 0.00 93 1006.1
20260904100745 75 315 0.0 2.0 0.00 0.00 0.00 93 1006.0
20260904100240 75 209 0.0 2.0 0.00 0.00 0.00 93 1006.0
20260904095740 75 209 0.0 2.0 0.00 0.00 0.00 93 1006.0
20260904095235 75 207 1.0 2.0 0.00 0.00 0.00 94 1005.9
20260904094731 75 202 1.0 2.0 0.00 0.00 0.00 94 1005.8
20260904094231 75 198 1.0 2.0 0.00 0.00 0.00 94 1006.2
20260904093727 75 230 0.0 1.0 0.00 0.00 0.00 94 1005.9
20260904093226 75 171 0.0 1.0 0.00 0.00 0.00 94 1005.8
20260904092722 75 235 0.0 2.0 0.00 0.00 0.00 93 1005.8
20260904092219 76 216 0.0 2.0 0.00 0.00 0.00 93 1005.8
20260904091714 76 242 1.0 2.0 0.00 0.00 0.00 92 1005.8
20260904091209 76 202 0.0 3.0 0.00 0.00 0.00 92 1005.7
20260904090705 76 206 1.0 3.0 0.00 0.00 0.00 93 1005.9
20260904090200 76 293 0.0 3.0 0.00 0.00 0.00 93 1005.7
20260904085655 76 224 0.0 1.0 0.00 0.00 0.00 93 1005.6
20260904085149 76 212 0.0 2.0 0.00 0.00 0.00 93 1005.6
20260904084644 76 205 0.0 2.0 0.00 0.00 0.00 93 1005.5
20260904084141 76 211 2.0 3.0 0.00 0.00 0.00 93 1005.4
20260904083637 76 199 2.0 3.0 0.00 0.00 0.00 92 1005.2
20260904083133 76 210 1.0 3.0 0.00 0.00 0.00 93 1005.2
20260904082627 76 281 2.0 3.0 0.00 0.00 0.00 94 1005.4
20260904082123 76 235 1.0 2.0 0.00 0.00 0.00 94 1005.4
20260904081618 76 261 1.0 3.0 0.00 0.00 0.00 94 1005.0
20260904081113 76 190 0.0 3.0 0.00 0.00 0.00 94 1005.2
20260904080604 76 209 2.0 5.0 0.00 0.00 0.00 95 1005.4
20260904080059 76 237 0.0 4.0 0.00 0.00 0.00 95 1005.5
20260904075555 76 224 2.0 4.0 0.00 0.00 0.00 95 1005.2
20260904075055 76 224 2.0 7.0 0.00 0.00 0.00 96 1005.2
20260904074554 76 207 4.0 6.0 0.00 0.00 0.00 96 1005.1
20260904074049 76 210 3.0 3.0 0.00 0.00 0.00 97 1005.2
20260904073544 76 225 3.0 6.0 0.00 0.00 0.00 97 1005.4
20260904073041 76 218 3.0 7.0 0.00 0.00 0.00 98 1005.2
20260904072536 76 219 3.0 6.0 0.00 0.00 0.00 98 1005.6
20260904072031 76 202 4.0 6.0 0.00 0.00 0.00 98 1005.7
20260904071527 76 199 3.0 6.0 0.00 0.00 0.00 99 1005.7
20260904071022 76 204 3.0 6.0 0.00 0.00 0.00 99 1005.6
20260904070520 76 220 2.0 7.0 0.00 0.00 0.00 99 1005.7
20260904070015 75 211 3.0 6.0 0.00 0.00 0.00 99 1005.6
20260904065510 75 217 4.0 6.0 0.00 0.00 0.00 99 1005.9
20260904065007 75 196 3.0 7.0 0.00 0.00 0.00 99 1005.9
20260904064502 75 204 3.0 6.0 0.00 0.00 0.00 99 1005.9
20260904063956 75 208 3.0 6.0 0.00 0.00 0.00 99 1006.0
20260904063448 75 219 8.0 8.0 0.00 0.00 0.00 99 1006.0
20260904062943 75 196 2.0 4.0 0.00 0.00 0.00 99 1005.7
20260904062439 75 201 3.0 7.0 0.00 0.00 0.00 99 1005.7
20260904061934 75 200 4.0 8.0 0.00 0.00 0.00 99 1006.0
20260904061431 75 204 4.0 7.0 0.00 0.00 0.00 99 1005.8
20260904060926 75 208 4.0 8.0 0.00 0.00 0.00 99 1005.9
20260904060422 75 212 4.0 7.0 0.00 0.00 0.00 99 1005.9
20260904055917 75 201 3.0 7.0 0.00 0.00 0.00 99 1006.0
20260904055413 75 198 2.0 8.0 0.00 0.00 0.00 99 1005.9
20260904054909 75 188 3.0 6.0 0.00 0.00 0.00 99 1006.0
20260904054404 76 203 3.0 5.0 0.00 0.00 0.00 99 1006.0
20260904053900 75 191 3.0 4.0 0.00 0.00 0.00 99 1006.3
20260904053358 75 198 2.0 4.0 0.00 0.00 0.00 99 1006.0
20260904052855 76 186 2.0 4.0 0.00 0.00 0.00 99 1006.1
20260904052351 76 189 3.0 4.0 0.00 0.00 0.00 99 1006.3
20260904051847 76 187 3.0 4.0 0.00 0.00 0.00 99 1006.1
20260904051342 76 159 2.0 4.0 0.00 0.00 0.00 99 1006.2
20260904050837 76 185 2.0 5.0 0.00 0.00 0.00 99 1006.1
20260904050334 76 211 3.0 5.0 0.00 0.00 0.00 99 1006.2
20260904045833 76 201 2.0 4.0 0.00 0.10 0.10 99 1006.3
20260904045328 76 156 3.0 6.0 0.00 0.10 0.10 99 1006.2
20260904044823 76 208 3.0 5.0 0.00 0.10 0.10 98 1006.1
20260904044319 76 204 4.0 8.0 0.00 0.10 0.10 98 1006.2
20260904043815 76 189 3.0 5.0 0.00 0.10 0.10 98 1006.3
20260904043311 76 204 3.0 7.0 0.00 0.10 0.10 98 1006.3
20260904042806 76 195 2.0 4.0 0.00 0.10 0.10 98 1006.2
20260904042306 76 197 2.0 4.0 0.00 0.10 0.10 98 1006.2
20260904041803 76 143 2.0 3.0 0.00 0.10 0.10 98 1006.1
20260904041259 76 185 2.0 5.0 0.00 0.10 0.10 98 1006.3
20260904040754 76 167 1.0 4.0 0.00 0.10 0.10 98 1006.2
20260904040250 76 202 2.0 3.0 0.00 0.10 0.10 98 1006.3
20260904035746 76 185 2.0 5.0 0.00 0.10 0.10 98 1006.3
20260904035241 76 218 3.0 5.0 0.00 0.10 0.10 98 1006.3
20260904034740 76 195 2.0 5.0 0.00 0.10 0.10 98 1006.3
20260904034236 76 174 3.0 4.0 0.00 0.10 0.10 98 1006.4
20260904033731 76 154 3.0 5.0 0.00 0.10 0.10 98 1006.3
20260904033228 76 202 3.0 3.0 0.00 0.10 0.10 98 1006.3
20260904032723 76 194 0.0 3.0 0.00 0.10 0.10 98 1006.4
20260904032222 76 127 3.0 5.0 0.00 0.10 0.10 98 1006.5
20260904031723 76 133 2.0 5.0 0.00 0.10 0.10 97 1006.4
20260904031218 76 190 3.0 4.0 0.00 0.10 0.10 97 1006.3
20260904030714 76 177 2.0 3.0 0.00 0.10 0.10 97 1006.4
20260904030209 76 115 3.0 4.0 0.00 0.10 0.10 97 1006.5
20260904025706 76 214 2.0 5.0 0.00 0.10 0.10 97 1006.4
20260904025200 77 164 1.0 5.0 0.00 0.10 0.10 96 1006.3